Vertical_Velocity
-1 -2 0 -0 -0 1 -0 -1 -1 0 -1 -1 -1 -2 -1 -2 -2 -3 -1 -1 -2 -1 -1 -2 -2 -2 -1 -0 -0 -1 -2 -1 -1 -0 -2 -1 -1 -1 -2 -1 -2 -1 0
-1 -2 -0 -2 -0 1 0 -1 -0 -1 -1 -1 -1 -1 0 -1 -1 -1 -2 -2 -2 -1 -1 0 0 -1 -2 -2 -1 -1 -0 -2 -2 -1 -1 -1 -1 -0 -0 -2 -0 -2 -1
-0 -0 -2 -1 -2 -1 -1 0 -0 1 1 -1 -0 -1 -1 1 -1 -0 -0 1 -1 -0 -1 -1 -1 -0 -2 -1 -3 -2 -2 -1 -2 -1 -2 -1 -1 -1 -2 -2 -1 -0 -1
1 -1 -0 -1 -2 -1 -1 -1 0 -1 -1 -1 -0 -1 -3 -2 -1 -1 -1 -3 1 -3 -1 -1 0 -1 0 -0 -1 -2 -1 -2 -2 -2 -1 -1 -2 -1 0 -0 -2 -2 -0
0 -0 1 0 0 2 -1 -2 -3 -1 -1 -1 -0 0 0 -1 -0 -1 -1 1 -2 -2 -2 -3 -1 -1 -0 -1 -0 -1 -1 -0 -0 -1 -1 -2 -3 -2 -1 -1 -1 -2 -2
-1 0 0 -0 -0 -1 2 1 -2 -2 -1 0 -0 -1 1 -1 -1 -3 -3 0 -1 2 1 -1 -1 -1 0 -1 -0 -2 -4 -2 -2 -0 -1 2 0 -1 -0 -1 0 -1 -1
0 -2 -2 0 0 -0 -1 0 1 -0 -1 -3 2 1 -3 -1 -1 -1 1 1 -2 -4 -1 -5 -2 0 -1 0 -0 1 0 -3 -1 -2 -2 -1 1 0 -1 1 0 -0 -0
-2 -0 -0 -1 -2 2 -1 -2 -0 -0 1 -1 -1 0 -1 -1 -1 -1 -1 0 -1 1 -0 -0 -1 -1 -1 0 -0 -1 -1 -0 -3 -0 -1 -1 -1 -2 -1 -0 -0 -1 -0
-3 -5 -1 -2 -4 1 0 -0 -5 -1 -2 -1 0 3 3 2 -0 1 0 -2 -0 1 -1 1 -3 -2 -1 -1 -0 -1 0 -3 -2 -2 -1 -0 1 -1 -1 -2 -2 -2 -3
-3 -5 -1 -0 -9 3 1 -2 1 -2 -2 -5 -3 -4 -2 2 -1 1 1 2 -3 -2 -2 -1 1 -2 1 2 1 -2 -1 3 0 -2 -3 -1 -2 1 -1 -1 0 -1 -2
-17 -7 -10 4 -3 1 3 1 -1 -1 0 -3 2 -4 -6 -3 -2 -7 -3 7 6 2 0 -1 0 -1 1 -1 0 0 0 -1 -0 -0 -0 -2 -0 -3 -2 0 1 1 -1
-8 -1 1 -8 5 -3 -0 4 0 -0 -1 -2 -1 0 -3 -0 0 -1 -6 -5 -8 6 3 4 2 1 -0 -0 -0 1 -1 1 -1 3 0 2 -0 -2 -0 -2 -2 -1 -1
-3 -2 -6 -4 -1 3 4 1 -1 -2 -1 -2 -0 -2 -2 -1 -2 -2 -2 -2 -7 3 2 2 -3 -3 -1 -0 -1 -5 1 -1 3 -3 -2 -4 -1 -1 -1 -1 -2 -2 -0
-2 -3 -3 3 -2 0 2 3 -3 -1 -0 -3 -1 0 -1 -3 -2 -3 -2 -5 -3 0 -0 -1 8 -2 1 0 1 1 -0 -5 1 1 2 1 -6 -2 -3 -4 -2 -0 -0
0 -2 -1 -4 2 3 1 -1 -3 1 0 -1 -2 -0 -1 -0 1 -1 -0 -2 -7 -10 0 6 -3 4 -2 -5 -4 -2 3 -0 -2 -2 -2 -1 5 3 -1 -4 -3 -2 -1
9 -2 -2 -3 0 3 -1 -4 -2 -0 -3 -2 -2 1 -2 -1 -0 -0 -1 -1 -4 -7 -12 -2 1 0 -2 -1 -0 -8 -5 -1 -1 3 -3 -0 -1 -2 1 0 -2 -3 -3
-2 3 0 -5 -1 3 -2 -4 1 -2 0 0 -2 -3 -3 -2 1 0 -1 -4 3 -5 -8 3 -4 3 4 1 -5 -3 -1 -5 -2 1 -1 -2 -1 -3 -3 -4 -1 -1 -0
5 -2 -3 1 2 -2 0 -2 -3 -3 1 -0 1 -3 -2 -3 0 0 -3 -3 2 -5 -6 -1 3 2 -3 3 -0 -5 -1 -1 -3 -5 -3 -3 -2 -3 -3 -3 -2 -2 -3
-4 -1 1 3 2 -3 -2 -1 -2 1 -2 -0 -3 -3 -1 -1 1 -2 -1 0 -1 -1 1 -8 -2 1 -2 -0 -1 -2 -3 -0 -1 -1 -1 -3 -5 -3 -3 -3 -2 -1 -3
0 -1 4 0 -2 -1 0 0 -1 -3 -5 -1 -0 -3 -3 -2 -4 -2 -4 -1 -3 -4 2 -2 -1 -1 -2 3 -3 -6 -2 -0 -2 1 2 -2 -5 -1 -0 -3 -3 -0 -2
2 -1 -2 -1 1 -0 0 -3 -6 -3 -0 -2 -1 -2 -1 -2 -4 -2 -8 1 -3 -0 -2 -2 -2 -4 -1 -2 -4 -2 -7 -2 -1 -1 -1 1 -3 1 1 1 -2 -3 -3
-0 -1 0 -2 -2 -2 -3 -3 -5 -5 -3 -2 -1 1 -1 -1 -4 -4 -1 -2 -1 -3 -0 -3 -1 0 -3 -7 -2 -6 -5 -6 -15 21 -4 -3 2 -2 -4 -2 2 -3 -6
-0 -1 -3 -1 -1 -1 -3 -4 -4 -1 -3 -0 -1 -3 -3 -3 -3 -3 2 1 2 3 2 -1 -2 1 -8 -0 -6 -7 -2 -2 -3 3 2 -23 5 -6 -4 -2 0 -5 -4
-0 -1 -2 -2 -0 2 -2 -1 -4 -5 -3 -1 -3 -4 -5 -1 1 -2 -1 -0 1 2 4 3 -2 -2 -2 -0 -2 -4 -4 -7 -6 2 4 -25 3 -5 -5 -2 6 -3 -5
-2 -1 0 1 -0 0 -3 -2 -5 -3 -3 -4 -1 -0 -4 -0 3 3 -3 -4 -3 -3 3 -1 -1 -2 -1 -1 0 -8 5 -6 -5 0 3 -15 6 -9 -4 -2 1 2 -4
-0 -0 2 -2 -1 -1 -1 -3 -4 -5 -1 -4 0 -0 2 -0 3 2 -6 -3 -10 -0 -1 3 5 3 1 -0 0 0 -1 -4 -5 -6 5 -12 -1 -0 -27 10 -0 9 1
Height
3156 3156 3157 3157 3158 3158 3157 3156 3155 3155 3154 3153 3152 3150 3149 3147 3145 3143 3141 3139 3137 3135 3133 3132 3130 3128 3127 3125 3124 3122 3119 3117 3115 3113 3112 3110 3107 3105 3103 3101 3099 3097 3095
3153 3154 3155 3155 3155 3156 3155 3155 3154 3153 3153 3152 3150 3149 3148 3146 3144 3142 3140 3138 3135 3134 3131 3129 3127 3126 3125 3123 3121 3119 3117 3115 3113 3111 3109 3107 3105 3103 3101 3099 3097 3095 3093
3152 3152 3153 3153 3153 3153 3153 3153 3152 3151 3151 3149 3148 3147 3145 3144 3142 3140 3138 3136 3134 3132 3130 3128 3126 3124 3123 3121 3118 3117 3115 3113 3110 3108 3106 3104 3102 3099 3098 3096 3094 3092 3090
3149 3150 3151 3151 3151 3151 3150 3150 3150 3149 3148 3147 3146 3145 3143 3141 3140 3138 3136 3134 3132 3130 3128 3125 3123 3121 3119 3117 3116 3113 3112 3110 3108 3105 3103 3101 3099 3096 3094 3093 3092 3089 3087
3146 3147 3148 3148 3148 3148 3148 3148 3147 3147 3146 3145 3144 3142 3141 3139 3137 3135 3134 3132 3130 3128 3125 3123 3120 3118 3116 3114 3112 3110 3108 3106 3104 3102 3099 3097 3095 3093 3091 3089 3088 3086 3084
3142 3143 3144 3146 3145 3145 3145 3145 3145 3144 3143 3142 3141 3139 3138 3136 3134 3132 3130 3128 3126 3124 3121 3119 3117 3114 3112 3110 3108 3106 3104 3102 3100 3098 3096 3094 3091 3089 3087 3085 3084 3082 3081
3139 3140 3141 3141 3142 3142 3141 3141 3141 3140 3140 3138 3137 3136 3134 3133 3131 3129 3128 3126 3123 3121 3118 3116 3114 3111 3108 3106 3104 3101 3099 3097 3094 3093 3091 3089 3088 3085 3083 3081 3079 3078 3076
3135 3137 3137 3138 3138 3138 3137 3136 3136 3136 3136 3135 3134 3132 3131 3130 3129 3126 3124 3122 3119 3117 3114 3112 3109 3107 3104 3102 3099 3096 3094 3092 3090 3088 3086 3084 3083 3080 3078 3075 3074 3073 3072
3130 3132 3134 3135 3135 3134 3133 3132 3131 3131 3131 3130 3129 3129 3127 3125 3124 3122 3119 3118 3115 3112 3110 3107 3104 3102 3100 3097 3094 3091 3088 3086 3085 3082 3080 3078 3076 3075 3072 3070 3069 3068 3066
3124 3126 3127 3128 3131 3129 3128 3127 3126 3125 3126 3125 3124 3123 3122 3121 3118 3119 3116 3112 3110 3107 3105 3102 3098 3095 3093 3090 3087 3085 3083 3080 3078 3076 3075 3073 3070 3067 3065 3064 3063 3061 3060
3121 3121 3122 3124 3124 3124 3124 3123 3122 3121 3120 3119 3118 3117 3116 3114 3111 3110 3111 3108 3105 3101 3098 3095 3092 3088 3086 3082 3080 3078 3075 3073 3071 3068 3067 3065 3064 3061 3059 3056 3054 3054 3053
3116 3115 3117 3119 3118 3119 3119 3117 3116 3116 3115 3114 3112 3111 3109 3107 3104 3099 3096 3098 3098 3098 3093 3090 3084 3080 3076 3074 3072 3069 3066 3064 3062 3061 3059 3057 3054 3052 3051 3049 3046 3044 3043
3110 3112 3111 3113 3113 3114 3114 3112 3111 3111 3110 3108 3106 3104 3102 3099 3097 3093 3088 3085 3080 3080 3082 3084 3079 3074 3068 3064 3062 3058 3055 3052 3051 3050 3048 3046 3045 3043 3041 3038 3037 3036 3035
3103 3103 3105 3107 3109 3109 3109 3108 3107 3107 3104 3103 3101 3098 3096 3093 3090 3085 3081 3077 3073 3070 3067 3063 3068 3066 3062 3057 3053 3048 3046 3043 3039 3036 3034 3033 3031 3031 3030 3028 3026 3025 3024
3098 3099 3100 3102 3104 3104 3104 3102 3102 3100 3098 3095 3093 3091 3089 3086 3082 3078 3073 3069 3063 3056 3052 3052 3049 3048 3049 3048 3045 3039 3035 3031 3028 3025 3023 3020 3019 3017 3015 3014 3014 3014 3013
3093 3093 3095 3097 3100 3099 3097 3097 3096 3093 3090 3087 3084 3083 3080 3077 3074 3070 3066 3062 3057 3051 3043 3040 3036 3032 3028 3026 3027 3026 3022 3018 3013 3010 3007 3006 3005 3004 3003 3001 2998 2998 3000
3089 3088 3090 3092 3094 3092 3090 3089 3087 3085 3082 3079 3076 3074 3072 3067 3065 3061 3057 3053 3048 3044 3036 3032 3028 3022 3017 3012 3008 3006 3005 3005 3001 2999 2995 2991 2989 2988 2987 2986 2985 2983 2982
3085 3085 3086 3086 3086 3084 3082 3081 3079 3076 3073 3070 3067 3065 3062 3058 3054 3050 3045 3041 3037 3032 3026 3019 3014 3010 3006 3002 2996 2992 2989 2986 2985 2985 2984 2979 2975 2972 2971 2970 2969 2968 2967
3080 3080 3080 3080 3077 3076 3074 3071 3069 3067 3065 3061 3057 3054 3051 3046 3042 3039 3034 3030 3024 3019 3013 3007 3001 2997 2992 2991 2986 2982 2978 2974 2972 2969 2965 2963 2961 2959 2956 2955 2953 2952 2952
3076 3074 3073 3072 3070 3068 3066 3063 3060 3058 3055 3051 3047 3043 3039 3034 3030 3026 3021 3016 3010 3006 3002 2996 2991 2986 2982 2979 2975 2969 2965 2963 2958 2958 2956 2951 2950 2948 2946 2943 2941 2940 2937
3069 3067 3066 3063 3062 3060 3057 3053 3050 3047 3044 3040 3037 3033 3028 3023 3019 3013 3007 3002 2998 2993 2990 2986 2981 2976 2972 2968 2963 2958 2954 2950 2947 2946 2943 2941 2940 2938 2936 2934 2931 2928 2926
3061 3059 3057 3056 3054 3051 3047 3043 3040 3036 3034 3030 3026 3022 3017 3011 3007 3002 2997 2992 2987 2981 2978 2975 2970 2965 2961 2958 2952 2948 2944 2940 2935 2938 2931 2930 2929 2926 2926 2924 2921 2917 2914
3052 3051 3049 3047 3044 3041 3038 3034 3031 3027 3023 3019 3014 3009 3003 2999 2995 2990 2986 2981 2978 2976 2972 2965 2959 2957 2952 2948 2943 2940 2936 2932 2929 2928 2922 2918 2921 2917 2915 2914 2912 2908 2905
3044 3042 3040 3037 3035 3033 3030 3026 3021 3017 3011 3006 3002 2996 2991 2987 2983 2978 2972 2970 2968 2966 2964 2958 2953 2949 2945 2941 2936 2932 2928 2924 2922 2919 2915 2910 2910 2907 2906 2905 2904 2899 2896
3036 3034 3032 3030 3027 3024 3019 3014 3009 3004 2997 2993 2989 2985 2982 2976 2973 2966 2961 2958 2956 2956 2952 2947 2944 2941 2937 2933 2930 2925 2922 2917 2913 2911 2908 2904 2902 2897 2897 2897 2896 2891 2887
3029 3026 3023 3020 3016 3012 3008 3003 2998 2991 2985 2981 2976 2973 2970 2966 2960 2956 2951 2948 2944 2944 2940 2937 2935 2932 2929 2926 2922 2919 2915 2911 2908 2903 2902 2897 2895 2890 2883 2888 2887 2884 2880